| time (UTC) | temp C | wind direction | speed KPH | gust KPH | rain 1hr cm | rain 24hr cm | rain mn cm | humidity % | barometer mb |
| 20260906191350 | -17 | 124 | 14.5 | 25.7 | 0.00 | 0.00 | 0.00 | 1017.4 | |
| 20260906190851 | -17 | 125 | 16.1 | 25.7 | 0.00 | 0.00 | 0.00 | 1017.4 | |
| 20260906190350 | -17 | 125 | 14.5 | 24.1 | 0.00 | 0.00 | 0.00 | 1017.4 | |
| 20260906185849 | -17 | 118 | 12.9 | 20.9 | 0.00 | 0.00 | 0.00 | 1017.4 | |
| 20260906185350 | -17 | 99 | 12.9 | 20.9 | 0.00 | 0.00 | 0.00 | 1017.4 | |
| 20260906184850 | -17 | 115 | 14.5 | 24.1 | 0.00 | 0.00 | 0.00 | 1017.4 | |
| 20260906184350 | -17 | 79 | 16.1 | 24.1 | 0.00 | 0.00 | 0.00 | 1017.5 | |
| 20260906183847 | -17 | 112 | 14.5 | 27.4 | 0.00 | 0.00 | 0.00 | 1017.5 | |
| 20260906183348 | -17 | 138 | 14.5 | 27.4 | 0.00 | 0.00 | 0.00 | 1017.6 | |
| 20260906182848 | -17 | 91 | 14.5 | 22.5 | 0.00 | 0.00 | 0.00 | 1017.6 | |
| 20260906182342 | -17 | 95 | 12.9 | 22.5 | 0.00 | 0.00 | 0.00 | 1017.5 | |
| 20260906181842 | -17 | 116 | 14.5 | 22.5 | 0.00 | 0.00 | 0.00 | 1017.4 | |
| 20260906181342 | -17 | 77 | 14.5 | 22.5 | 0.00 | 0.00 | 0.00 | 1017.4 | |
| 20260906180918 | -17 | 108 | 14.5 | 22.5 | 0.00 | 0.00 | 0.00 | 1017.5 | |
| 20260906175842 | -17 | 50 | 12.9 | 22.5 | 0.00 | 0.00 | 0.00 | 1017.5 | |
| 20260906175341 | -17 | 96 | 12.9 | 22.5 | 0.00 | 0.00 | 0.00 | 1017.5 | |
| 20260906174841 | -17 | 108 | 11.3 | 20.9 | 0.00 | 0.00 | 0.00 | 1017.6 | |
| 20260906174339 | -17 | 84 | 11.3 | 20.9 | 0.00 | 0.00 | 0.00 | 1017.5 | |
| 20260906174135 | -17 | 135 | 14.5 | 20.9 | 0.00 | 0.00 | 0.00 | 1017.5 | |
| 20260906173340 | -17 | 103 | 12.9 | 20.9 | 0.00 | 0.00 | 0.00 | 1017.4 | |
| 20260906172914 | -17 | 136 | 8.0 | 20.9 | 0.00 | 0.00 | 0.00 | 1017.3 | |
| 20260906171831 | -17 | 185 | 9.7 | 20.9 | 0.00 | 0.00 | 0.00 | 1017.4 | |
| 20260906171331 | -17 | 164 | 11.3 | 19.3 | 0.00 | 0.00 | 0.00 | 1017.5 | |
| 20260906170831 | -17 | 150 | 12.9 | 19.3 | 0.00 | 0.00 | 0.00 | 1017.7 | |
| 20260906170329 | -17 | 114 | 11.3 | 19.3 | 0.00 | 0.00 | 0.00 | 1017.6 | |
| 20260906165829 | -17 | 122 | 9.7 | 22.5 | 0.00 | 0.00 | 0.00 | 1017.7 | |
| 20260906165330 | -17 | 149 | 9.7 | 22.5 | 0.00 | 0.00 | 0.00 | 1017.6 | |
| 20260906164829 | -17 | 112 | 8.0 | 20.9 | 0.00 | 0.00 | 0.00 | 1017.6 | |
| 20260906164329 | -17 | 129 | 12.9 | 20.9 | 0.00 | 0.00 | 0.00 | 1017.7 | |
| 20260906163830 | -17 | 114 | 12.9 | 22.5 | 0.00 | 0.00 | 0.00 | 1017.9 | |
| 20260906163359 | -17 | 190 | 11.3 | 22.5 | 0.00 | 0.00 | 0.00 | 1018.0 | |
| 20260906162624 | -17 | 180 | 11.3 | 19.3 | 0.00 | 0.00 | 0.00 | 1018.0 | |
| 20260906161831 | -17 | 97 | 11.3 | 19.3 | 0.00 | 0.00 | 0.00 | 1018.1 | |
| 20260906161330 | -17 | 145 | 11.3 | 19.3 | 0.00 | 0.00 | 0.00 | 1018.2 | |
| 20260906160830 | -17 | 149 | 11.3 | 19.3 | 0.00 | 0.00 | 0.00 | 1018.2 | |
| 20260906160330 | -17 | 166 | 9.7 | 19.3 | 0.00 | 0.00 | 0.00 | 1018.3 | |
| 20260906155830 | -17 | 160 | 8.0 | 19.3 | 0.00 | 0.00 | 0.00 | 1018.2 | |
| 20260906155329 | -17 | 95 | 8.0 | 17.7 | 0.00 | 0.00 | 0.00 | 1018.3 | |
| 20260906154829 | -17 | 163 | 9.7 | 19.3 | 0.00 | 0.00 | 0.00 | 1018.2 | |
| 20260906154329 | -17 | 142 | 8.0 | 19.3 | 0.00 | 0.00 | 0.00 | 1018.4 | |
| 20260906153828 | -17 | 118 | 6.4 | 14.5 | 0.00 | 0.00 | 0.00 | 1018.6 | |
| 20260906153329 | -17 | 175 | 8.0 | 14.5 | 0.00 | 0.00 | 0.00 | 1018.6 | |
| 20260906153123 | -17 | 119 | 11.3 | 16.1 | 0.00 | 0.00 | 0.00 | 1018.6 | |
| 20260906152618 | -17 | 131 | 11.3 | 16.1 | 0.00 | 0.00 | 0.00 | 1018.6 | |
| 20260906152123 | 23 | 132 | 9.7 | 16.1 | 0.00 | 0.00 | 0.00 | 87 | 1018.6 |
| 20260906151400 | -17 | 129 | 9.7 | 17.7 | 0.00 | 0.00 | 0.00 | 1018.6 | |
| 20260906150329 | -17 | 148 | 9.7 | 17.7 | 0.00 | 0.00 | 0.00 | 1018.5 | |
| 20260906145829 | -17 | 102 | 11.3 | 17.7 | 0.00 | 0.00 | 0.00 | 1018.6 | |
| 20260906145335 | -17 | 111 | 9.7 | 16.1 | 0.00 | 0.00 | 0.00 | 1018.5 | |
| 20260906144832 | -17 | 101 | 11.3 | 17.7 | 0.00 | 0.00 | 0.00 | 1018.5 | |
| 20260906144332 | -17 | 127 | 11.3 | 19.3 | 0.00 | 0.00 | 0.00 | 1018.4 | |
| 20260906143830 | -17 | 122 | 9.7 | 19.3 | 0.00 | 0.00 | 0.00 | 1018.4 | |
| 20260906143330 | -17 | 130 | 9.7 | 19.3 | 0.00 | 0.00 | 0.00 | 1018.5 | |
| 20260906142829 | -17 | 129 | 9.7 | 19.3 | 0.00 | 0.00 | 0.00 | 1018.5 | |
| 20260906142329 | -17 | 142 | 8.0 | 14.5 | 0.00 | 0.00 | 0.00 | 1018.5 | |
| 20260906141828 | -17 | 110 | 9.7 | 14.5 | 0.00 | 0.00 | 0.00 | 1018.5 | |
| 20260906141329 | -17 | 95 | 8.0 | 16.1 | 0.00 | 0.00 | 0.00 | 1018.5 | |
| 20260906140830 | -17 | 104 | 8.0 | 16.1 | 0.00 | 0.00 | 0.00 | 1018.5 | |
| 20260906140328 | -17 | 118 | 8.0 | 16.1 | 0.00 | 0.00 | 0.00 | 1018.5 | |
| 20260906135830 | -17 | 104 | 8.0 | 16.1 | 0.00 | 0.00 | 0.00 | 1018.6 | |
| 20260906135329 | -17 | 129 | 8.0 | 14.5 | 0.00 | 0.00 | 0.00 | 1018.5 | |
| 20260906134830 | -17 | 110 | 6.4 | 14.5 | 0.00 | 0.00 | 0.00 | 1018.6 | |
| 20260906134330 | -17 | 141 | 4.8 | 14.5 | 0.00 | 0.00 | 0.00 | 1018.5 | |
| 20260906133830 | -17 | 104 | 6.4 | 12.9 | 0.00 | 0.00 | 0.00 | 1018.4 | |
| 20260906133330 | -17 | 75 | 6.4 | 12.9 | 0.00 | 0.00 | 0.00 | 1018.5 | |
| 20260906132828 | -17 | 68 | 8.0 | 12.9 | 0.00 | 0.00 | 0.00 | 1018.4 | |
| 20260906132329 | -17 | 108 | 8.0 | 14.5 | 0.00 | 0.00 | 0.00 | 1018.4 | |
| 20260906131829 | -17 | 118 | 9.7 | 14.5 | 0.00 | 0.00 | 0.00 | 1018.5 | |
| 20260906131328 | -17 | 96 | 11.3 | 16.1 | 0.00 | 0.00 | 0.00 | 1018.5 | |
| 20260906131115 | -17 | 85 | 11.3 | 17.7 | 0.00 | 0.00 | 0.00 | 1018.4 | |
| 20260906130329 | -17 | 72 | 11.3 | 17.7 | 0.00 | 0.00 | 0.00 | 1018.3 | |
| 20260906130114 | -17 | 75 | 11.3 | 17.7 | 0.00 | 0.00 | 0.00 | 1018.3 | |
| 20260906125618 | -17 | 93 | 9.7 | 17.7 | 0.00 | 0.00 | 0.00 | 1018.4 | |
| 20260906124830 | -17 | 71 | 9.7 | 17.7 | 0.00 | 0.00 | 0.00 | 1018.4 | |
| 20260906124329 | -17 | 89 | 9.7 | 16.1 | 0.00 | 0.00 | 0.00 | 1018.3 | |
| 20260906123830 | -17 | 87 | 11.3 | 19.3 | 0.00 | 0.00 | 0.00 | 1018.2 | |
| 20260906123330 | -17 | 109 | 11.3 | 19.3 | 0.00 | 0.00 | 0.00 | 1018.2 | |
| 20260906122829 | -17 | 100 | 9.7 | 14.5 | 0.00 | 0.00 | 0.00 | 1018.2 | |
| 20260906122331 | -17 | 88 | 9.7 | 12.9 | 0.00 | 0.00 | 0.00 | 1018.1 | |
| 20260906121858 | -17 | 74 | 9.7 | 14.5 | 0.00 | 0.00 | 0.00 | 1018.1 | |
| 20260906120830 | -17 | 89 | 9.7 | 14.5 | 0.00 | 0.00 | 0.00 | 1018.1 | |
| 20260906120330 | -17 | 84 | 9.7 | 14.5 | 0.00 | 0.00 | 0.00 | 1018.0 | |
| 20260906115828 | -17 | 79 | 9.7 | 12.9 | 0.00 | 0.00 | 0.00 | 1018.0 | |
| 20260906115328 | -17 | 72 | 9.7 | 12.9 | 0.00 | 0.00 | 0.00 | 1018.0 | |
| 20260906114828 | -17 | 83 | 9.7 | 14.5 | 0.00 | 0.00 | 0.00 | 1017.9 | |
| 20260906114330 | -17 | 70 | 9.7 | 14.5 | 0.00 | 0.00 | 0.00 | 1017.9 | |
| 20260906113829 | -17 | 71 | 8.0 | 12.9 | 0.00 | 0.00 | 0.00 | 1018.1 | |
| 20260906113329 | -17 | 67 | 6.4 | 12.9 | 0.00 | 0.00 | 0.00 | 1018.0 | |
| 20260906112830 | -17 | 79 | 6.4 | 11.3 | 0.00 | 0.00 | 0.00 | 1018.0 | |
| 20260906112329 | -17 | 84 | 6.4 | 11.3 | 0.00 | 0.00 | 0.00 | 1018.1 | |
| 20260906112120 | -17 | 74 | 4.8 | 9.7 | 0.00 | 0.00 | 0.00 | 1018.1 | |
| 20260906111328 | -17 | 81 | 4.8 | 6.4 | 0.00 | 0.00 | 0.00 | 1018.2 | |
| 20260906110830 | -17 | 67 | 4.8 | 6.4 | 0.00 | 0.00 | 0.00 | 1018.0 | |
| 20260906110330 | -17 | 67 | 4.8 | 6.4 | 0.00 | 0.00 | 0.00 | 1018.0 | |
| 20260906105829 | -17 | 66 | 4.8 | 6.4 | 0.00 | 0.00 | 0.00 | 1018.0 | |
| 20260906105328 | -17 | 66 | 4.8 | 8.0 | 0.00 | 0.00 | 0.00 | 1017.9 | |
| 20260906104830 | -17 | 53 | 6.4 | 11.3 | 0.00 | 0.00 | 0.00 | 1017.9 | |
| 20260906104330 | -17 | 56 | 6.4 | 11.3 | 0.00 | 0.00 | 0.00 | 1017.9 | |
| 20260906103829 | -17 | 68 | 6.4 | 11.3 | 0.00 | 0.00 | 0.00 | 1017.8 | |
| 20260906103330 | -17 | 68 | 8.0 | 11.3 | 0.00 | 0.00 | 0.00 | 1017.9 | |
| 20260906102830 | -17 | 56 | 6.4 | 11.3 | 0.00 | 0.00 | 0.00 | 1017.8 | |
| 20260906102330 | -17 | 77 | 6.4 | 11.3 | 0.00 | 0.00 | 0.00 | 1017.8 | |
| 20260906101900 | -17 | 89 | 4.8 | 9.7 | 0.00 | 0.00 | 0.00 | 1017.6 | |
| 20260906100821 | -17 | 101 | 4.8 | 9.7 | 0.00 | 0.00 | 0.00 | 1017.6 | |
| 20260906100344 | -17 | 91 | 3.2 | 9.7 | 0.00 | 0.00 | 0.00 | 1017.5 | |
| 20260906095310 | -17 | 98 | 4.8 | 11.3 | 0.00 | 0.00 | 0.00 | 1017.2 | |
| 20260906094807 | -17 | 91 | 6.4 | 12.9 | 0.00 | 0.00 | 0.00 | 1017.0 | |
| 20260906094303 | -17 | 119 | 8.0 | 14.5 | 0.00 | 0.00 | 0.00 | 1017.0 | |
| 20260906093802 | -17 | 90 | 9.7 | 14.5 | 0.00 | 0.00 | 0.00 | 1016.9 | |
| 20260906093601 | -17 | 85 | 9.7 | 14.5 | 0.00 | 0.00 | 0.00 | 1016.9 | |
| 20260906092802 | -17 | 81 | 9.7 | 14.5 | 0.00 | 0.00 | 0.00 | 1016.9 | |
| 20260906092600 | -17 | 63 | 11.3 | 16.1 | 0.00 | 0.00 | 0.00 | 1016.9 | |
| 20260906091802 | -17 | 81 | 11.3 | 16.1 | 0.00 | 0.00 | 0.00 | 1016.9 | |
| 20260906091303 | -17 | 88 | 12.9 | 17.7 | 0.00 | 0.00 | 0.00 | 1016.9 | |
| 20260906090802 | -17 | 74 | 11.3 | 17.7 | 0.00 | 0.00 | 0.00 | 1017.0 | |
| 20260906090557 | -17 | 79 | 12.9 | 17.7 | 0.00 | 0.00 | 0.00 | 1017.0 | |
| 20260906085802 | -17 | 72 | 11.3 | 17.7 | 0.00 | 0.00 | 0.00 | 1017.0 | |
| 20260906085306 | -17 | 89 | 9.7 | 16.1 | 0.00 | 0.00 | 0.00 | 1017.0 | |
| 20260906084802 | -17 | 61 | 9.7 | 14.5 | 0.00 | 0.00 | 0.00 | 1017.0 | |
| 20260906084302 | -17 | 61 | 9.7 | 16.1 | 0.00 | 0.00 | 0.00 | 1017.1 | |
| 20260906083801 | -17 | 75 | 8.0 | 16.1 | 0.00 | 0.00 | 0.00 | 1017.2 | |
| 20260906083302 | -17 | 62 | 8.0 | 12.9 | 0.00 | 0.00 | 0.00 | 1017.2 | |
| 20260906082802 | -17 | 57 | 8.0 | 12.9 | 0.00 | 0.00 | 0.00 | 1017.1 | |
| 20260906082300 | -17 | 61 | 8.0 | 12.9 | 0.00 | 0.00 | 0.00 | 1017.1 | |
| 20260906081801 | -17 | 60 | 8.0 | 12.9 | 0.00 | 0.00 | 0.00 | 1017.1 | |
| 20260906081300 | -17 | 66 | 4.8 | 11.3 | 0.00 | 0.00 | 0.00 | 1017.2 | |
| 20260906081055 | -17 | 70 | 6.4 | 11.3 | 0.00 | 0.00 | 0.00 | 1017.2 | |
| 20260906080554 | -17 | 74 | 8.0 | 12.9 | 0.00 | 0.00 | 0.00 | 1017.0 | |
| 20260906075802 | -17 | 57 | 8.0 | 12.9 | 0.00 | 0.00 | 0.00 | 1016.9 | |
| 20260906075301 | -17 | 64 | 8.0 | 12.9 | 0.00 | 0.00 | 0.00 | 1016.9 | |
| 20260906074802 | -17 | 64 | 8.0 | 12.9 | 0.00 | 0.00 | 0.00 | 1016.9 | |
| 20260906074301 | -17 | 66 | 6.4 | 11.3 | 0.00 | 0.00 | 0.00 | 1017.0 | |
| 20260906073802 | -17 | 77 | 6.4 | 11.3 | 0.00 | 0.00 | 0.00 | 1017.1 | |
| 20260906073555 | -17 | 74 | 8.0 | 12.9 | 0.00 | 0.00 | 0.00 | 1017.1 | |
| 20260906073056 | -17 | 72 | 8.0 | 12.9 | 0.00 | 0.00 | 0.00 | 1017.2 | |
| 20260906072305 | -17 | 62 | 8.0 | 11.3 | 0.00 | 0.00 | 0.00 | 1017.3 | |
| 20260906071801 | -17 | 71 | 8.0 | 12.9 | 0.00 | 0.00 | 0.00 | 1017.3 | |
| 20260906071302 | -17 | 52 | 8.0 | 14.5 | 0.00 | 0.00 | 0.00 | 1017.3 | |
| 20260906070801 | -17 | 74 | 9.7 | 14.5 | 0.00 | 0.00 | 0.00 | 1017.4 | |
| 20260906070301 | -17 | 74 | 9.7 | 12.9 | 0.00 | 0.00 | 0.00 | 1017.4 | |
| 20260906065805 | -17 | 57 | 9.7 | 12.9 | 0.00 | 0.00 | 0.00 | 1017.4 | |
| 20260906065300 | -17 | 61 | 9.7 | 12.9 | 0.00 | 0.00 | 0.00 | 1017.5 | |
| 20260906065055 | -17 | 58 | 9.7 | 12.9 | 0.00 | 0.00 | 0.00 | 1017.6 | |
| 20260906064259 | -17 | 66 | 9.7 | 12.9 | 0.00 | 0.00 | 0.00 | 1017.6 | |
| 20260906063754 | -17 | 64 | 9.7 | 14.5 | 0.00 | 0.00 | 0.00 | 1017.5 | |
| 20260906063252 | -17 | 70 | 9.7 | 14.5 | 0.00 | 0.00 | 0.00 | 1017.4 | |
| 20260906063048 | -17 | 74 | 8.0 | 14.5 | 0.00 | 0.00 | 0.00 | 1017.5 | |
| 20260906062254 | -17 | 72 | 9.7 | 16.1 | 0.00 | 0.00 | 0.00 | 1017.6 | |
| 20260906062046 | -17 | 70 | 11.3 | 16.1 | 0.00 | 0.00 | 0.00 | 1017.4 | |
| 20260906061251 | -17 | 66 | 12.9 | 16.1 | 0.00 | 0.00 | 0.00 | 1017.3 | |
| 20260906060751 | -17 | 77 | 11.3 | 14.5 | 0.00 | 0.00 | 0.00 | 1017.3 | |
| 20260906060249 | -17 | 70 | 9.7 | 14.5 | 0.00 | 0.00 | 0.00 | 1017.4 | |
| 20260906055748 | -17 | 68 | 9.7 | 14.5 | 0.00 | 0.00 | 0.00 | 1017.5 | |
| 20260906055249 | -17 | 58 | 9.7 | 12.9 | 0.00 | 0.00 | 0.00 | 1017.4 | |
| 20260906054747 | -17 | 78 | 9.7 | 12.9 | 0.00 | 0.00 | 0.00 | 1017.4 | |
| 20260906054540 | -17 | 76 | 9.7 | 12.9 | 0.00 | 0.00 | 0.00 | 1017.3 | |
| 20260906053747 | -17 | 71 | 9.7 | 12.9 | 0.00 | 0.00 | 0.00 | 1017.1 | |
| 20260906053314 | -17 | 81 | 8.0 | 12.9 | 0.00 | 0.00 | 0.00 | 1017.2 | |
| 20260906052544 | -17 | 85 | 8.0 | 11.3 | 0.00 | 0.00 | 0.00 | 1017.1 | |
| 20260906051745 | -17 | 87 | 9.7 | 12.9 | 0.00 | 0.00 | 0.00 | 1017.1 | |
| 20260906051245 | 19 | 89 | 9.7 | 12.9 | 0.00 | 0.00 | 0.00 | 91 | 1017.1 |
| 20260906051036 | -17 | 85 | 9.7 | 14.5 | 0.00 | 0.00 | 0.00 | 1017.1 | |
| 20260906050245 | -17 | 106 | 8.0 | 14.5 | 0.00 | 0.00 | 0.00 | 1017.2 | |
| 20260906045743 | -17 | 104 | 8.0 | 12.9 | 0.00 | 0.00 | 0.00 | 1017.3 | |
| 20260906045539 | -17 | 92 | 9.7 | 12.9 | 0.00 | 0.00 | 0.00 | 1017.3 | |
| 20260906045037 | -17 | 104 | 9.7 | 14.5 | 0.00 | 0.00 | 0.00 | 1017.4 | |
| 20260906044244 | -17 | 74 | 11.3 | 14.5 | 0.00 | 0.00 | 0.00 | 1017.4 | |
| 20260906044038 | -17 | 77 | 11.3 | 14.5 | 0.00 | 0.00 | 0.00 | 1017.3 | |
| 20260906043244 | -17 | 90 | 11.3 | 14.5 | 0.00 | 0.00 | 0.00 | 1017.4 | |
| 20260906042743 | -17 | 79 | 11.3 | 14.5 | 0.00 | 0.00 | 0.00 | 1017.3 | |
| 20260906042242 | -17 | 87 | 11.3 | 14.5 | 0.00 | 0.00 | 0.00 | 1017.3 | |
| 20260906041744 | -17 | 87 | 11.3 | 14.5 | 0.00 | 0.00 | 0.00 | 1017.3 | |
| 20260906041243 | -17 | 91 | 11.3 | 14.5 | 0.00 | 0.00 | 0.00 | 1017.3 | |
| 20260906040742 | -17 | 88 | 11.3 | 16.1 | 0.00 | 0.00 | 0.00 | 1017.4 | |
| 20260906040242 | -17 | 68 | 11.3 | 16.1 | 0.00 | 0.00 | 0.00 | 1017.3 | |
| 20260906035743 | -17 | 67 | 9.7 | 14.5 | 0.00 | 0.00 | 0.00 | 1017.2 | |
| 20260906035242 | -17 | 77 | 9.7 | 14.5 | 0.00 | 0.00 | 0.00 | 1017.3 | |
| 20260906034744 | -17 | 72 | 9.7 | 12.9 | 0.00 | 0.00 | 0.00 | 1017.3 | |
| 20260906034244 | -17 | 65 | 9.7 | 12.9 | 0.00 | 0.00 | 0.00 | 1017.3 | |
| 20260906033741 | -17 | 78 | 9.7 | 12.9 | 0.00 | 0.00 | 0.00 | 1017.2 | |
| 20260906033241 | -17 | 72 | 9.7 | 12.9 | 0.00 | 0.00 | 0.00 | 1017.3 | |
| 20260906032741 | -17 | 85 | 8.0 | 12.9 | 0.00 | 0.00 | 0.00 | 1017.3 | |
| 20260906032544 | -17 | 80 | 8.0 | 12.9 | 0.00 | 0.00 | 0.00 | 1017.3 | |
| 20260906031739 | -17 | 73 | 8.0 | 12.9 | 0.00 | 0.00 | 0.00 | 1017.4 | |
| 20260906031232 | -17 | 71 | 8.0 | 12.9 | 0.00 | 0.00 | 0.00 | 1017.5 | |
| 20260906031029 | -17 | 76 | 8.0 | 12.9 | 0.00 | 0.00 | 0.00 | 1017.4 | |
| 20260906030232 | -17 | 74 | 8.0 | 12.9 | 0.00 | 0.00 | 0.00 | 1017.5 | |
| 20260906025733 | -17 | 64 | 8.0 | 14.5 | 0.00 | 0.00 | 0.00 | 1017.4 | |
| 20260906025232 | -17 | 53 | 8.0 | 14.5 | 0.00 | 0.00 | 0.00 | 1017.4 | |
| 20260906024731 | -17 | 73 | 8.0 | 14.5 | 0.00 | 0.00 | 0.00 | 1017.5 | |
| 20260906024230 | -17 | 53 | 8.0 | 14.5 | 0.00 | 0.00 | 0.00 | 1017.7 | |
| 20260906023730 | -17 | 51 | 8.0 | 12.9 | 0.00 | 0.00 | 0.00 | 1017.7 | |
| 20260906023523 | -17 | 52 | 6.4 | 9.7 | 0.00 | 0.00 | 0.00 | 1017.5 | |
| 20260906023030 | -17 | 56 | 6.4 | 11.3 | 0.00 | 0.00 | 0.00 | 1017.5 | |
| 20260906022230 | -17 | 51 | 8.0 | 11.3 | 0.00 | 0.00 | 0.00 | 1017.5 | |
| 20260906021729 | -17 | 31 | 8.0 | 11.3 | 0.00 | 0.00 | 0.00 | 1017.5 | |
| 20260906021229 | -17 | 27 | 8.0 | 11.3 | 0.00 | 0.00 | 0.00 | 1017.6 | |
| 20260906020729 | -17 | 14 | 8.0 | 11.3 | 0.00 | 0.00 | 0.00 | 1017.5 | |
| 20260906020528 | -17 | 17 | 8.0 | 11.3 | 0.00 | 0.00 | 0.00 | 1017.5 | |
| 20260906015730 | -17 | 10 | 6.4 | 9.7 | 0.00 | 0.00 | 0.00 | 1017.4 | |
| 20260906015230 | -17 | 22 | 6.4 | 9.7 | 0.00 | 0.00 | 0.00 | 1017.1 | |
| 20260906014730 | -17 | 28 | 4.8 | 8.0 | 0.00 | 0.00 | 0.00 | 1017.0 | |
| 20260906014229 | -17 | 0 | 4.8 | 6.4 | 0.00 | 0.00 | 0.00 | 1017.0 | |
| 20260906013729 | -17 | 5 | 4.8 | 6.4 | 0.00 | 0.00 | 0.00 | 1016.9 | |
| 20260906013230 | -17 | 5 | 6.4 | 8.0 | 0.00 | 0.00 | 0.00 | 1016.6 | |
| 20260906012726 | -17 | 10 | 4.8 | 8.0 | 0.00 | 0.00 | 0.00 | 1016.4 | |
| 20260906012520 | -17 | 22 | 4.8 | 6.4 | 0.00 | 0.00 | 0.00 | 1016.3 | |
| 20260906012015 | -17 | 25 | 3.2 | 6.4 | 0.00 | 0.00 | 0.00 | 1016.2 | |
| 20260906011230 | -17 | 70 | 3.2 | 3.2 | 0.00 | 0.00 | 0.00 | 1016.1 | |
| 20260906010728 | -17 | 70 | 1.6 | 3.2 | 0.00 | 0.00 | 0.00 | 1016.0 | |
| 20260906010227 | -17 | 70 | 1.6 | 3.2 | 0.00 | 0.00 | 0.00 | 1015.8 | |
| 20260906005720 | -17 | 70 | 3.2 | 3.2 | 0.00 | 0.00 | 0.00 | 1015.8 | |
| 20260906005209 | -17 | 70 | 3.2 | 4.8 | 0.00 | 0.00 | 0.00 | 1015.6 | |
| 20260906004706 | -17 | 70 | 1.6 | 4.8 | 0.00 | 0.00 | 0.00 | 1015.6 | |
| 20260906004204 | -17 | 70 | 1.6 | 3.2 | 0.00 | 0.00 | 0.00 | 1015.5 | |
| 20260906003704 | -17 | 70 | 1.6 | 3.2 | 0.00 | 0.00 | 0.00 | 1015.5 | |
| 20260906003211 | -17 | 70 | 1.6 | 4.8 | 0.00 | 0.00 | 0.00 | 1015.4 | |
| 20260906002739 | -17 | 78 | 1.6 | 6.4 | 0.00 | 0.00 | 0.00 | 1015.3 | |
| 20260906001706 | -17 | 68 | 8.0 | 12.9 | 0.00 | 0.00 | 0.00 | 1015.1 | |
| 20260906001205 | -17 | 91 | 11.3 | 14.5 | 0.00 | 0.00 | 0.00 | 1015.0 | |
| 20260906000702 | -17 | 90 | 11.3 | 20.9 | 0.00 | 0.00 | 0.00 | 1015.0 | |
| 20260906000204 | -17 | 88 | 11.3 | 20.9 | 0.00 | 0.00 | 0.00 | 1015.0 | |
| 20260905235731 | -17 | 100 | 12.9 | 20.9 | 0.00 | 0.00 | 0.00 | 1014.9 | |
| 20260905234703 | -17 | 108 | 9.7 | 19.3 | 0.00 | 0.00 | 0.00 | 1015.0 | |
| 20260905234202 | -17 | 108 | 11.3 | 19.3 | 0.00 | 0.00 | 0.00 | 1014.9 | |
| 20260905233703 | -17 | 91 | 12.9 | 20.9 | 0.00 | 0.00 | 0.00 | 1014.9 | |
| 20260905233202 | -17 | 80 | 12.9 | 20.9 | 0.00 | 0.00 | 0.00 | 1015.0 | |
| 20260905232702 | -17 | 99 | 12.9 | 20.9 | 0.00 | 0.00 | 0.00 | 1014.9 | |
| 20260905232202 | -17 | 110 | 14.5 | 20.9 | 0.00 | 0.00 | 0.00 | 1014.9 | |
| 20260905231702 | -17 | 106 | 12.9 | 19.3 | 0.00 | 0.00 | 0.00 | 1014.9 | |
| 20260905231201 | -17 | 69 | 11.3 | 17.7 | 0.00 | 0.00 | 0.00 | 1015.1 | |
| 20260905230701 | -17 | 77 | 9.7 | 17.7 | 0.00 | 0.00 | 0.00 | 1015.1 | |
| 20260905230201 | -17 | 80 | 11.3 | 20.9 | 0.00 | 0.00 | 0.00 | 1015.1 | |
| 20260905225701 | -17 | 74 | 14.5 | 25.7 | 0.00 | 0.00 | 0.00 | 1015.2 | |
| 20260905225201 | -17 | 85 | 14.5 | 25.7 | 0.00 | 0.00 | 0.00 | 1015.2 | |
| 20260905224700 | -17 | 80 | 14.5 | 22.5 | 0.00 | 0.00 | 0.00 | 1015.3 | |
| 20260905224201 | -17 | 95 | 11.3 | 22.5 | 0.00 | 0.00 | 0.00 | 1015.3 | |
| 20260905223655 | -17 | 28 | 9.7 | 19.3 | 0.00 | 0.00 | 0.00 | 1015.4 | |
| 20260905223154 | -17 | 84 | 14.5 | 22.5 | 0.00 | 0.00 | 0.00 | 1015.4 | |
| 20260905222948 | -17 | 91 | 16.1 | 27.4 | 0.00 | 0.00 | 0.00 | 1015.4 | |
| 20260905222154 | -17 | 68 | 16.1 | 27.4 | 0.00 | 0.00 | 0.00 | 1015.4 | |
| 20260905221654 | -17 | 55 | 16.1 | 29.0 | 0.00 | 0.00 | 0.00 | 1015.4 | |
| 20260905221154 | -17 | 87 | 17.7 | 29.0 | 0.00 | 0.00 | 0.00 | 1015.4 | |
| 20260905220654 | -17 | 72 | 17.7 | 29.0 | 0.00 | 0.00 | 0.00 | 1015.3 | |
| 20260905220154 | -17 | 107 | 19.3 | 29.0 | 0.00 | 0.00 | 0.00 | 1015.4 | |
| 20260905215654 | -17 | 58 | 17.7 | 29.0 | 0.00 | 0.00 | 0.00 | 1015.3 | |
| 20260905215156 | -17 | 77 | 17.7 | 25.7 | 0.00 | 0.00 | 0.00 | 1015.2 | |
| 20260905214655 | -17 | 58 | 17.7 | 27.4 | 0.00 | 0.00 | 0.00 | 1015.3 | |
| 20260905214154 | -17 | 74 | 16.1 | 27.4 | 0.00 | 0.00 | 0.00 | 1015.3 | |
| 20260905213650 | -17 | 86 | 16.1 | 29.0 | 0.00 | 0.00 | 0.00 | 1015.3 | |
| 20260905213150 | -17 | 76 | 16.1 | 29.0 | 0.00 | 0.00 | 0.00 | 1015.4 | |
| 20260905212649 | -17 | 64 | 16.1 | 25.7 | 0.00 | 0.00 | 0.00 | 1015.5 | |
| 20260905212150 | -17 | 64 | 16.1 | 25.7 | 0.00 | 0.00 | 0.00 | 1015.5 | |
| 20260905211943 | -17 | 53 | 16.1 | 24.1 | 0.00 | 0.00 | 0.00 | 1015.8 | |
| 20260905211150 | -17 | 77 | 16.1 | 24.1 | 0.00 | 0.00 | 0.00 | 1015.8 | |
| 20260905210650 | -17 | 92 | 14.5 | 24.1 | 0.00 | 0.00 | 0.00 | 1015.7 | |
| 20260905210151 | -17 | 75 | 14.5 | 22.5 | 0.00 | 0.00 | 0.00 | 1015.8 | |
| 20260905205650 | -17 | 82 | 14.5 | 22.5 | 0.00 | 0.00 | 0.00 | 1016.1 | |
| 20260905205149 | -17 | 81 | 14.5 | 22.5 | 0.00 | 0.00 | 0.00 | 1016.1 | |
| 20260905204651 | -17 | 89 | 12.9 | 22.5 | 0.00 | 0.00 | 0.00 | 1016.1 | |
| 20260905204148 | -17 | 95 | 12.9 | 19.3 | 0.00 | 0.00 | 0.00 | 1016.2 | |
| 20260905203649 | -17 | 96 | 12.9 | 20.9 | 0.00 | 0.00 | 0.00 | 1016.1 | |
| 20260905203439 | -17 | 62 | 11.3 | 20.9 | 0.00 | 0.00 | 0.00 | 1016.4 | |
| 20260905202649 | -17 | 133 | 9.7 | 22.5 | 0.00 | 0.00 | 0.00 | 1016.3 | |
| 20260905202147 | -17 | 99 | 11.3 | 22.5 | 0.00 | 0.00 | 0.00 | 1016.4 | |
| 20260905201644 | -17 | 39 | 12.9 | 22.5 | 0.00 | 0.00 | 0.00 | 1016.6 | |
| 20260905201143 | -17 | 69 | 14.5 | 22.5 | 0.00 | 0.00 | 0.00 | 1016.6 | |
| 20260905200644 | -17 | 74 | 11.3 | 20.9 | 0.00 | 0.00 | 0.00 | 1016.8 | |
| 20260905200144 | -17 | 70 | 11.3 | 22.5 | 0.00 | 0.00 | 0.00 | 1016.9 | |
| 20260905195645 | -17 | 82 | 12.9 | 22.5 | 0.00 | 0.00 | 0.00 | 1016.9 | |
| 20260905195141 | -17 | 61 | 11.3 | 20.9 | 0.00 | 0.00 | 0.00 | 1017.0 | |
| 20260905194933 | -17 | 46 | 9.7 | 20.9 | 0.00 | 0.00 | 0.00 | 1017.0 | |
| 20260905194141 | -17 | 65 | 6.4 | 14.5 | 0.00 | 0.00 | 0.00 | 1017.2 | |
| 20260905193929 | -17 | 25 | 8.0 | 17.7 | 0.00 | 0.00 | 0.00 | 1017.3 | |
| 20260905193140 | -17 | 114 | 9.7 | 17.7 | 0.00 | 0.00 | 0.00 | 1017.3 | |
| 20260905192641 | -17 | 89 | 9.7 | 16.1 | 0.00 | 0.00 | 0.00 | 1017.4 | |
| 20260905192141 | -17 | 82 | 8.0 | 16.1 | 0.00 | 0.00 | 0.00 | 1017.3 |